Regional Weather Roundup
Issued by NWS Albany, NY

Home | Current Version | Previous Version | Text Only | Print | Product List | Glossary On
Versions: 1 2 3 4 5 6 7 8 9 10 11 12 13 14 15 16 17 18 19 20 21 22 23 24 25 26 27 28 29 30 31 32 33 34 35 36 37 38 39 40 41 42 43 44 45 46 47 48 49
000
ASUS41 KALY 031110
RWRALY

NEW YORK STATE HOURLY WEATHER ROUNDUP
NATIONAL WEATHER SERVICE ALBANY NY
700 AM EDT THU SEP 03 2015

NOTE: "FAIR" INDICATES FEW OR NO CLOUDS BELOW 12,000 FEET WITH NO
SIGNIFICANT WEATHER AND/OR NO OBSTRUCTIONS TO VISIBILITY.

NYZ032-033-038>043-046>054-057>066-NYZ062>081-031200-
EAST


CITY           SKY/WX    TMP DP  RH WIND       PRES   REMARKS
ALBANY         MOCLDY    65  62  90 CALM      29.90R
GLENS FALLS    PTCLDY    62  59  90 CALM      29.91R FOG
POUGHKEEPSIE   CLEAR     63  60  90 CALM      29.89R
NEWBURGH       CLEAR     64  64 100 CALM      29.90R
MONTGOMERY     PTCLDY    61  60  97 CALM      29.91R FOG
WHITE PLAINS   CLEAR     68  64  87 NW6       29.88R
ISLIP          FOG       72  70  93 N5        29.85R VSB 1/8
NEW YORK CITY  CLEAR     77  65  66 N3        29.86R
CENTRAL PARK   CLEAR     75  64  68 CALM      29.90R HAZE
$$

NYZ005>009-017-018-044>046-055-056-031200-
CENTRAL


CITY           SKY/WX    TMP DP  RH WIND       PRES   REMARKS
FULTON         FOG       65  64  97 CALM      29.93R VSB 3/4
SYRACUSE       MOCLDY    67  66  97 CALM      29.92S FOG
ROME           CLOUDY    63  61  93 CALM      29.95R
ELMIRA         FOG       65  65 100 W3        29.96R VSB 3/4
BINGHAMTON     CLEAR     66  65  96 W3        29.97R FOG
MONTICELLO     PTCLDY    61  61 100 W3        29.97R
$$

NYZ026>034-041>043-031200-
NORTH


CITY           SKY/WX    TMP DP  RH WIND       PRES   REMARKS
WATERTOWN      FOG       65  64  97 CALM      29.91S VSB 1/4
FORT DRUM      NOT AVBL
MASSENA        CLOUDY    70  67  90 SW5       29.91R FOG
SARANAC LAKE   CLOUDY    65  64  97 S3        29.94R FOG
PLATTSBURGH    CLOUDY    68  66  93 CALM      29.88R FOG
$$

NYZ001>004-010>016-019>021-031200-
WEST


CITY           SKY/WX    TMP DP  RH WIND       PRES   REMARKS
NIAGARA FALLS  FOG       71  70  96 CALM      29.94R VSB 1/8
BUFFALO        MOCLDY    71  67  87 S5        29.95S FOG
DUNKIRK        PTCLDY    70  67  90 SW5       29.96R FOG
JAMESTOWN      CLOUDY    63  61  94 CALM      30.00S VSB<1/4
WELLSVILLE     FOG       63  61  93 CALM      30.03S VSB 1/4
ROCHESTER      MOCLDY    68  66  93 SW5       29.94R FOG
PENN YAN       MOCLDY    69  66  90 W3        29.96R FOG
$$

             KEY
       WCI = WIND CHILL INDEX
       VSB = VISIBILITY
       HX  = HEAT INDEX
$$


USA.gov is the U.S. government's official web portal to all federal, state and local government web resources and services.